"2010-06-19 00:00:00",213580,7.182,77.65,2.727,0.247,20.65,109.4375,23.45,24.44,25.16,0,110.9,13.22,24.28,39.7
"2010-06-19 00:00:30",213581,7.539,80,3.809,0.29,20.62,109.4375,23.45,24.44,25.51,0,110.9,13.22,24.28,42.0
"2010-06-19 00:01:00",213582,6.724,80.6,4.493,0.324,20.6,109.4371,23.45,24.44,25.48,0,110.9,13.22,24.28,42.6
"2010-06-19 00:01:30",213583,6.055,81.4,4.405,0.248,20.59,109.4359,23.45,24.42,25.67,0,110.9,13.22,24.28,43.4
"2010-06-19 00:02:00",213584,5.661,62.25,3.505,0.31,20.53,109.4365,23.45,24.43,25.89,0,110.9,13.22,24.28,24.2
"2010-06-19 00:02:30",213585,5.49,64.95,1.801,0.292,20.54,109.4344,23.44,24.41,26.08,0,110.9,13.22,24.28,26.9
"2010-06-19 00:03:00",213586,5.849,65.18,1.974,0.349,20.6,109.4275,23.42,24.41,26.54,0,110.9,13.22,24.26,27.2
"2010-06-19 00:03:30",213587,6.004,62.1,4.811,0.508,20.61,109.4229,23.41,24.4,26.73,0,110.9,13.22,24.25,24.1
"2010-06-19 00:04:00",213588,5.906,64.93,4.349,0.471,20.67,109.4235,23.41,24.4,27.01,0,110.9,13.22,24.25,26.9
"2010-06-19 00:04:30",213589,6.356,61.26,2.841,0.207,20.61,109.4277,23.42,24.37,26.8,0,110.9,13.22,24.26,23.3
"2010-06-19 00:05:00",213590,6.462,64.68,2.989,0.161,20.52,109.4258,23.42,24.38,26.07,0,110.9,13.22,24.25,26.7
"2010-06-19 00:05:30",213591,6.782,58.74,5.022,0.427,20.57,109.4252,23.42,24.39,26.18,0,110.9,13.22,24.25,20.7
"2010-06-19 00:06:00",213592,6.444,54.46,2.012,0.229,20.5,109.4145,23.39,24.38,25.99,0,110.9,13.22,24.22,16.5
"2010-06-19 00:06:30",213593,7.359,61.13,1.575,0.431,20.51,109.4073,23.37,24.36,25.81,0,110.9,13.22,24.21,23.1
"2010-06-19 00:07:00",213594,6.929,62.68,1.784,0.204,20.56,109.4071,23.37,24.36,25.83,0,110.9,13.22,24.20,24.7
"2010-06-19 00:07:30",213595,6.707,59.62,3.243,0.159,20.5,109.4049,23.37,24.35,25.74,0,110.9,13.22,24.20,21.6
"2010-06-19 00:08:00",213596,6.981,56.87,1.198,0.275,20.52,109.408,23.37,24.36,25.69,0,110.9,13.22,24.21,18.9
"2010-06-19 00:08:30",213597,7.261,60.9,1.997,0.286,20.57,109.4068,23.37,24.34,25.81,0,110.9,13.22,24.20,22.9
"2010-06-19 00:09:00",213598,7.363,59.87,2.861,0.306,20.63,109.4067,23.37,24.37,25.9,0,110.9,13.22,24.20,21.9
"2010-06-19 00:09:30",213599,7.949,59.06,4.288,0.624,20.63,109.4124,23.39,24.36,25.7,0,110.9,13.21,24.22,21.1
"2010-06-19 00:10:00",213600,8.31,60.9,2.996,0.28,20.67,109.4169,23.4,24.37,25.45,0,110.9,13.21,24.23,22.9
"2010-06-19 00:10:30",213601,8.59,59.55,2.099,0.168,20.61,109.4249,23.42,24.37,25.28,0,110.9,13.22,24.25,21.5
"2010-06-19 00:11:00",213602,8.49,63.99,3.356,0.282,20.68,109.4271,23.42,24.37,25.39,0,110.9,13.21,24.26,26.0
"2010-06-19 00:11:30",213603,7.87,69.39,2.966,0.367,20.73,109.436,23.45,24.39,25.62,0,110.9,13.22,24.28,31.4
"2010-06-19 00:12:00",213604,8.63,69.39,1.238,0.207,20.7,109.4427,23.46,24.4,25.54,0,110.9,13.21,24.30,31.4
"2010-06-19 00:12:30",213605,8.7,70.04,1.151,0.191,20.73,109.4458,23.47,24.41,25.66,0,110.9,13.22,24.30,32.0
"2010-06-19 00:13:00",213606,8.29,69.08,1.671,0.147,20.71,109.4461,23.47,24.41,25.64,0,110.9,13.22,24.31,31.1
"2010-06-19 00:13:30",213607,7.791,68,0.771,0.209,20.69,109.4436,23.47,24.41,25.61,0,111,13.22,24.30,30.0
"2010-06-19 00:14:00",213608,7.699,67.97,1.022,0.233,20.7,109.4445,23.47,24.42,25.7,0,111,13.22,24.30,30.0
"2010-06-19 00:14:30",213609,7.712,69.04,3.242,0.346,20.73,109.4439,23.47,24.44,25.82,0,111,13.22,24.30,31.0
"2010-06-19 00:15:00",213610,7.721,75.48,2.005,0.685,20.77,109.4442,23.47,24.43,26.01,0,111,13.22,24.30,37.5
"2010-06-19 00:15:30",213611,7.47,75.2,3.296,0.373,20.75,109.4445,23.47,24.43,26.25,0,110.9,13.22,24.30,37.2
"2010-06-19 00:16:00",213612,7.501,70.81,4.455,0.256,20.73,109.4448,23.47,24.42,26.18,0,111,13.22,24.30,32.8
"2010-06-19 00:16:30",213613,7.091,75.94,6.248,0.615,20.69,109.4427,23.46,24.42,26.22,0,111,13.22,24.30,37.9
"2010-06-19 00:17:00",213614,7.425,75.61,2.149,0.243,20.67,109.4424,23.46,24.41,25.93,0,110.9,13.22,24.30,37.6
"2010-06-19 00:17:30",213615,7.677,77.43,1.605,0.208,20.67,109.4445,23.47,24.42,25.65,0,110.9,13.22,24.30,39.4
"2010-06-19 00:18:00",213616,7.4,81.5,2.693,0.18,20.66,109.4439,23.47,24.4,25.59,0,110.9,13.22,24.30,43.5
"2010-06-19 00:18:30",213617,7.127,84.5,2.157,0.318,20.64,109.4421,23.46,24.41,25.51,0,110.9,13.22,24.30,46.5
"2010-06-19 00:19:00",213618,6.772,82.9,2.265,0.275,20.66,109.4455,23.47,24.41,25.39,0,110.9,13.22,24.30,44.9
"2010-06-19 00:19:30",213619,6.751,78.42,1.797,0.182,20.67,109.4448,23.47,24.42,25.17,0,110.9,13.22,24.30,40.4
"2010-06-19 00:20:00",213620,7.061,73.2,2.394,0.373,20.58,109.4458,23.47,24.42,25.1,0,110.9,13.22,24.30,35.2
"2010-06-19 00:20:30",213621,6.68,73.62,2.395,0.147,20.54,109.4458,23.47,24.43,25.27,0,110.9,13.22,24.30,35.6
"2010-06-19 00:21:00",213622,6.428,67.87,1.472,0.255,20.59,109.4464,23.47,24.43,25.19,0,110.9,13.22,24.31,29.9
"2010-06-19 00:21:30",213623,6.703,68.85,1.564,0.189,20.61,109.4436,23.47,24.44,25.34,0,110.9,13.22,24.30,30.8
"2010-06-19 00:22:00",213624,7.237,66.27,2.004,0.525,20.63,109.4479,23.48,24.45,25.76,0,111,13.22,24.31,28.3
"2010-06-19 00:22:30",213625,8.14,65.26,2.514,0.28,20.61,109.4507,23.48,24.45,25.62,0,110.9,13.22,24.32,27.3
"2010-06-19 00:23:00",213626,7.94,67.24,1.881,0.231,20.59,109.4557,23.5,24.45,25.38,0,110.9,13.22,24.33,29.2
"2010-06-19 00:23:30",213627,7.783,66.73,2.046,0.237,20.58,109.45,23.48,24.45,25.32,0,110.9,13.22,24.32,28.7
"2010-06-19 00:24:00",213628,6.785,65.8,1.58,0.193,20.54,109.4478,23.48,24.46,25.38,0,110.9,13.22,24.31,27.8
"2010-06-19 00:24:30",213629,6.844,65.2,1.73,0.104,20.54,109.4439,23.47,24.45,24.87,0,110.9,13.22,24.30,27.2
"2010-06-19 00:25:00",213630,7.017,65.59,1.14,0.114,20.56,109.4442,23.47,24.44,24.86,0,111,13.22,24.30,27.6
"2010-06-19 00:25:30",213631,6.755,65.71,1.594,0.173,20.56,109.4445,23.47,24.43,24.94,0,111,13.22,24.30,27.7
"2010-06-19 00:26:00",213632,6.551,64.76,1.357,0.096,20.55,109.4443,23.47,24.44,24.9,0,111,13.22,24.30,26.8
"2010-06-19 00:26:30",213633,6.781,63.71,1.546,0.138,20.62,109.4439,23.47,24.43,24.99,0,110.9,13.22,24.30,25.7
"2010-06-19 00:27:00",213634,6.771,61.83,2.108,0.202,20.58,109.4424,23.46,24.44,25.02,0,111,13.22,24.30,23.8
"2010-06-19 00:27:30",213635,6.161,59.61,1.552,0.189,20.58,109.4408,23.46,24.44,25.07,0,111,13.22,24.29,21.6
"2010-06-19 00:28:00",213636,5.82,61.25,1.212,0.149,20.57,109.4424,23.46,24.43,25.24,0,111,13.21,24.30,23.2
"2010-06-19 00:28:30",213637,6.015,62.11,1.518,0.114,20.55,109.4436,23.47,24.44,25.34,0,111,13.21,24.30,24.1
"2010-06-19 00:29:00",213638,6.051,66.08,2.225,0.219,20.52,109.4405,23.46,24.44,25.6,0,111,13.21,24.29,28.1
"2010-06-19 00:29:30",213639,6.229,64.65,3.423,0.242,20.55,109.4387,23.45,24.43,25.71,0,111,13.21,24.29,26.7
"2010-06-19 00:30:00",213640,6.35,62.65,2.771,0.332,20.55,109.4393,23.45,24.42,25.83,0,111,13.21,24.29,24.7
"2010-06-19 00:30:30",213641,6.731,67.28,1.437,0.255,20.52,109.4387,23.45,24.43,25.68,0,111,13.22,24.29,29.3
"2010-06-19 00:31:00",213642,6.32,64.82,2.066,0.129,20.51,109.4393,23.45,24.41,25.61,0,111,13.22,24.29,26.8
"2010-06-19 00:31:30",213643,6.46,60.68,2,0.317,20.54,109.4381,23.45,24.4,25.66,0,111,13.22,24.28,22.7
"2010-06-19 00:32:00",213644,6.785,64.75,2.814,0.303,20.55,109.4381,23.45,24.39,25.43,0,111,13.22,24.28,26.8
"2010-06-19 00:32:30",213645,7.201,62.7,2.216,0.216,20.6,109.4361,23.45,24.41,25.7,0,111,13.22,24.28,24.7
"2010-06-19 00:33:00",213646,7.228,64.92,1.86,0.203,20.6,109.4375,23.45,24.4,25.41,0,111,13.22,24.28,26.9
"2010-06-19 00:33:30",213647,7.058,64.33,1.482,0.19,20.58,109.4387,23.45,24.4,25.22,0,111,13.22,24.29,26.3
"2010-06-19 00:34:00",213648,7.345,66.86,1.28,0.236,20.56,109.4375,23.45,24.4,25,0,110.9,13.22,24.28,28.9
"2010-06-19 00:34:30",213649,7.531,69.46,1.589,0.194,20.57,109.4364,23.45,24.4,24.96,0,110.9,13.22,24.28,31.5
"2010-06-19 00:35:00",213650,7.285,73.38,0.761,0.142,20.59,109.4366,23.45,24.41,24.97,0,110.9,13.22,24.28,35.4
"2010-06-19 00:35:30",213651,6.916,73.53,0.73,0.069,20.59,109.4371,23.45,24.4,25,0,111,13.22,24.28,35.5
"2010-06-19 00:36:00",213652,6.872,71.28,2.564,0.309,20.55,109.4375,23.45,24.41,25,0,111,13.22,24.28,33.3
"2010-06-19 00:36:30",213653,7.183,66.81,1.865,0.278,20.56,109.4375,23.45,24.42,25.05,0,111,13.22,24.28,28.8
"2010-06-19 00:37:00",213654,6.425,62.73,2.961,0.36,20.54,109.4375,23.45,24.42,25.05,0,111,13.22,24.28,24.7
"2010-06-19 00:37:30",213655,6.306,60.57,1.658,0.232,20.57,109.4369,23.45,24.41,25.17,0,111,13.22,24.28,22.6
"2010-06-19 00:38:00",213656,6.484,61.12,3.493,0.182,20.56,109.4375,23.45,24.41,25.48,0,110.9,13.22,24.28,23.1
"2010-06-19 00:38:30",213657,6.1,64.2,3.604,0.166,20.55,109.4375,23.45,24.4,25.54,0,110.9,13.22,24.28,26.2
"2010-06-19 00:39:00",213658,7.148,60.77,7.352,0.454,20.58,109.4251,23.42,24.39,25.75,0,110.9,13.22,24.25,22.8
"2010-06-19 00:39:30",213659,7.821,70.59,1.574,0.358,20.62,109.4189,23.4,24.4,25.62,0,110.9,13.22,24.24,32.6
"2010-06-19 00:40:00",213660,8.34,71.03,1.069,0.13,20.64,109.4209,23.41,24.37,25.49,0,110.9,13.22,24.24,33.0
"2010-06-19 00:40:30",213661,8.27,69,1.25,0.26,20.73,109.4203,23.41,24.38,26.4,0,110.9,13.22,24.24,31.0
"2010-06-19 00:41:00",213662,7.697,66.64,3.238,0.317,20.71,109.4226,23.41,24.39,26.63,0,110.9,13.22,24.24,28.6
"2010-06-19 00:41:30",213663,6.363,53.84,5.111,0.64,20.65,109.4292,23.43,24.39,26.65,0,110.9,13.22,24.26,15.8
"2010-06-19 00:42:00",213664,6.964,64.97,1.862,0.256,20.58,109.4282,23.43,24.39,25.95,0,110.9,13.22,24.26,27.0
"2010-06-19 00:42:30",213665,6.298,64.94,2.827,0.208,20.54,109.4189,23.4,24.39,25.84,0,110.9,13.21,24.24,26.9
"2010-06-19 00:43:00",213666,6.096,64.44,2.292,0.155,20.55,109.413,23.39,24.39,25.77,0,110.9,13.21,24.22,26.4
"2010-06-19 00:43:30",213667,6.212,62.23,1.618,0.144,20.55,109.413,23.39,24.37,25.69,0,110.9,13.21,24.22,24.2
"2010-06-19 00:44:00",213668,6.55,64.17,2.234,0.228,20.54,109.413,23.39,24.37,25.73,0,110.9,13.21,24.22,26.2
"2010-06-19 00:44:30",213669,6.357,63.18,3.276,0.354,20.59,109.413,23.39,24.37,26,0,110.9,13.21,24.22,25.2
"2010-06-19 00:45:00",213670,6.023,65.09,3.105,0.283,20.55,109.4121,23.38,24.37,25.8,0,110.9,13.21,24.22,27.1
"2010-06-19 00:45:30",213671,6.041,67.4,2.133,0.321,20.53,109.4079,23.37,24.36,25.48,0,110.9,13.21,24.21,29.4
"2010-06-19 00:46:00",213672,5.789,56.6,4.805,0.401,20.52,109.4003,23.35,24.34,25.92,0,110.9,13.22,24.19,18.6
"2010-06-19 00:46:30",213673,6.85,51.05,2.55,0.241,20.51,109.3955,23.34,24.34,25.71,0,110.9,13.22,24.18,13.0
"2010-06-19 00:47:00",213674,6.261,51.68,1.758,0.274,20.54,109.3851,23.31,24.33,25.72,0,110.9,13.22,24.15,13.7
"2010-06-19 00:47:30",213675,6.173,50.79,1.733,0.371,20.51,109.3795,23.3,24.33,25.7,0,110.9,13.22,24.13,12.8
"2010-06-19 00:48:00",213676,6.138,54.96,2.071,0.104,20.5,109.3795,23.3,24.32,25.62,0,110.9,13.22,24.13,17.0
"2010-06-19 00:48:30",213677,6.175,58.23,2.604,0.228,20.53,109.3805,23.3,24.32,25.71,0,110.9,13.22,24.14,20.2
"2010-06-19 00:49:00",213678,6.652,60.71,2.266,0.213,20.55,109.3811,23.3,24.32,25.84,0,110.9,13.23,24.14,22.7
"2010-06-19 00:49:30",213679,6.567,61.15,1.776,0.131,20.54,109.383,23.31,24.31,25.95,0,110.9,13.23,24.14,23.2
"2010-06-19 00:50:00",213680,6.218,57.55,1.684,0.124,20.52,109.3812,23.3,24.32,25.81,0,110.9,13.23,24.14,19.5
"2010-06-19 00:50:30",213681,5.77,54.22,0.97,0.328,20.5,109.382,23.31,24.32,25.72,0,110.9,13.23,24.14,16.2
"2010-06-19 00:51:00",213682,5.636,55.81,1.904,0.275,20.49,109.3831,23.31,24.31,25.75,0,110.9,13.23,24.14,17.8
"2010-06-19 00:51:30",213683,6.391,58.08,3.121,0.348,20.53,109.3834,23.31,24.31,26.09,0,110.9,13.23,24.14,20.1
"2010-06-19 00:52:00",213684,6.539,63.69,1.857,0.307,20.54,109.3846,23.31,24.31,26.3,0,110.9,13.23,24.15,25.7
"2010-06-19 00:52:30",213685,6.627,65,2.587,0.526,20.58,109.3838,23.31,24.31,26.51,0,110.9,13.23,24.14,27.0
"2010-06-19 00:53:00",213686,6.25,64.87,3.387,0.191,20.53,109.387,23.32,24.31,26.4,0,110.9,13.24,24.15,26.9
"2010-06-19 00:53:30",213687,6.469,63.82,1.378,0.268,20.53,109.3868,23.32,24.31,26.1,0,110.9,13.23,24.15,25.8
"2010-06-19 00:54:00",213688,6.113,62.09,1.606,0.201,20.51,109.3882,23.32,24.29,26.23,0,110.9,13.24,24.16,24.1
"2010-06-19 00:54:30",213689,6.292,58.02,1.275,0.133,20.5,109.3861,23.32,24.29,25.74,0,110.9,13.24,24.15,20.0
"2010-06-19 00:55:00",213690,6.338,62.01,3.526,0.146,20.5,109.3813,23.31,24.28,25.79,0,110.9,13.24,24.14,24.0
"2010-06-19 00:55:30",213691,6.513,66.64,1.682,0.118,20.51,109.3787,23.3,24.29,25.8,0,110.9,13.23,24.13,28.6
"2010-06-19 00:56:00",213692,6.611,62.96,1.417,0.144,20.52,109.3754,23.29,24.29,25.88,0,110.9,13.23,24.12,25.0
"2010-06-19 00:56:30",213693,6.282,62.29,1.319,0.093,20.53,109.3666,23.27,24.27,25.87,0,110.9,13.23,24.10,24.3
"2010-06-19 00:57:00",213694,6.149,61.49,1.215,0.112,20.54,109.361,23.25,24.27,25.86,0,110.9,13.23,24.09,23.5
"2010-06-19 00:57:30",213695,6.468,63.21,1.855,0.124,20.53,109.3662,23.27,24.26,26,0,110.9,13.23,24.10,25.2
"2010-06-19 00:58:00",213696,6.537,62.94,0.744,0.097,20.56,109.3606,23.25,24.28,25.75,0,110.9,13.23,24.09,24.9
"2010-06-19 00:58:30",213697,6.778,65.43,1.156,0.114,20.56,109.3539,23.23,24.28,25.74,0,110.9,13.22,24.07,27.4
"2010-06-19 00:59:00",213698,7.037,65.89,2.016,0.132,20.62,109.3538,23.23,24.27,25.7,0,110.9,13.22,24.07,27.9
"2010-06-19 00:59:30",213699,6.895,71.11,2.663,0.165,20.67,109.3555,23.24,24.27,25.98,0,110.9,13.22,24.07,33.1
"2010-06-19 01:00:00",213700,6.97,70.22,2.669,0.149,20.65,109.3534,23.23,24.28,25.97,0,110.9,13.22,24.07,32.2
"2010-06-19 01:00:30",213701,7.239,71.54,1.197,0.189,20.68,109.3532,23.23,24.26,25.58,0,110.9,13.22,24.07,33.5
"2010-06-19 01:01:00",213702,6.687,71.14,1.238,0.135,20.69,109.3501,23.23,24.26,25.59,0,110.9,13.22,24.06,33.1
"2010-06-19 01:01:30",213703,7.036,68.32,0.896,0.31,20.68,109.3529,23.23,24.24,25.6,0,110.9,13.22,24.07,30.3
"2010-06-19 01:02:00",213704,7.712,68.19,1.912,0.282,20.71,109.3587,23.25,24.24,25.84,0,110.9,13.22,24.08,30.2
"2010-06-19 01:02:30",213705,7.788,63.71,2.17,0.287,20.65,109.3636,23.26,24.25,26.15,0,110.9,13.22,24.09,25.7
"2010-06-19 01:03:00",213706,7.816,62.34,1.348,0.237,20.69,109.3713,23.28,24.26,26.02,0,110.9,13.23,24.11,24.3
"2010-06-19 01:03:30",213707,8.13,66.73,1.728,0.184,20.74,109.3757,23.29,24.24,25.91,0,110.9,13.23,24.12,28.7
"2010-06-19 01:04:00",213708,8.48,64.65,1.774,0.221,20.73,109.3675,23.27,24.25,25.9,0,110.9,13.24,24.10,26.7
"2010-06-19 01:04:30",213709,8.67,64.36,1.069,0.163,20.75,109.3675,23.27,24.24,25.69,0,110.9,13.24,24.10,26.4
"2010-06-19 01:05:00",213710,8.74,65.69,1.438,0.127,20.73,109.3641,23.26,24.23,25.81,0,110.9,13.24,24.09,27.7
"2010-06-19 01:05:30",213711,8.47,66.77,1.333,0.292,20.76,109.3565,23.24,24.22,25.99,0,110.9,13.24,24.07,28.8
"2010-06-19 01:06:00",213712,8.45,65.89,1.166,0.113,20.72,109.3526,23.23,24.23,25.79,0,110.9,13.25,24.06,27.9
"2010-06-19 01:06:30",213713,8.37,66.12,0.82,0.133,20.74,109.35,23.22,24.21,25.75,0,110.9,13.25,24.06,28.1
"2010-06-19 01:07:00",213714,8.43,66.19,1.647,0.194,20.74,109.3486,23.22,24.23,25.85,0,110.9,13.25,24.05,28.2
"2010-06-19 01:07:30",213715,7.973,66.91,1.296,0.142,20.75,109.3486,23.22,24.21,25.68,0,110.9,13.25,24.05,28.9
"2010-06-19 01:08:00",213716,7.955,66.48,1.685,0.164,20.76,109.343,23.21,24.2,25.74,0,110.9,13.25,24.04,28.5
"2010-06-19 01:08:30",213717,7.988,64.13,1.415,0.287,20.73,109.3368,23.19,24.19,26.04,0,110.9,13.25,24.02,26.1
"2010-06-19 01:09:00",213718,8.13,62.98,1.13,0.165,20.73,109.3351,23.19,24.2,26.05,0,110.9,13.25,24.02,25.0
"2010-06-19 01:09:30",213719,7.77,62.4,0.509,0.086,20.72,109.3332,23.18,24.19,25.58,0,110.9,13.25,24.01,24.4
"2010-06-19 01:10:00",213720,7.807,63.53,1.24,0.112,20.7,109.332,23.18,24.19,25.49,0,110.9,13.26,24.01,25.5
"2010-06-19 01:10:30",213721,7.503,65.5,0.855,0.135,20.72,109.3318,23.18,24.18,25.42,0,110.9,13.26,24.01,27.5
"2010-06-19 01:11:00",213722,7.438,65.1,1.528,0.218,20.72,109.3318,23.18,24.18,25.58,0,110.9,13.26,24.01,27.1
"2010-06-19 01:11:30",213723,7.636,66.03,1.552,0.162,20.72,109.3318,23.18,24.19,25.63,0,110.9,13.26,24.01,28.0
"2010-06-19 01:12:00",213724,7.835,60.2,2.051,0.179,20.69,109.3315,23.18,24.19,25.92,0,110.9,13.25,24.01,22.2
"2010-06-19 01:12:30",213725,7.396,60.14,1.653,0.265,20.71,109.3318,23.18,24.17,26.55,0,110.9,13.26,24.01,22.1
"2010-06-19 01:13:00",213726,7.521,58.18,3.083,0.321,20.71,109.3298,23.17,24.18,26.55,0,110.9,13.25,24.01,20.2
"2010-06-19 01:13:30",213727,6.441,60.82,3.984,0.165,20.74,109.3273,23.17,24.17,25.99,0,110.9,13.25,24.00,22.8
"2010-06-19 01:14:00",213728,6.441,63.28,1.362,0.199,20.69,109.3264,23.16,24.17,25.77,0,110.9,13.25,24.00,25.3
"2010-06-19 01:14:30",213729,5.839,59.39,2.078,0.115,20.63,109.3264,23.16,24.17,25.86,0,110.9,13.25,24.00,21.4
"2010-06-19 01:15:00",213730,5.903,52.45,4.388,0.206,20.6,109.3168,23.14,24.15,27.51,0,110.9,13.25,23.97,14.5
"2010-06-19 01:15:30",213731,5.887,52.95,3.363,0.29,20.62,109.3118,23.13,24.13,28.27,0,110.9,13.25,23.96,15.0
"2010-06-19 01:16:00",213732,6.757,50.23,3.718,0.318,20.64,109.3014,23.1,24.13,28.25,0,110.9,13.25,23.93,12.2
"2010-06-19 01:16:30",213733,6.88,50.88,1.734,0.202,20.69,109.298,23.09,24.1,28.11,0,110.9,13.25,23.92,12.9
"2010-06-19 01:17:00",213734,6.465,53.93,1.885,0.268,20.69,109.2969,23.09,24.08,27.95,0,110.9,13.25,23.92,15.9
"2010-06-19 01:17:30",213735,6.004,53.21,1.669,0.349,20.65,109.2854,23.06,24.07,27.76,0,110.9,13.25,23.89,15.2
"2010-06-19 01:18:00",213736,5.311,58.85,2.625,0.113,20.68,109.2811,23.05,24.06,26.55,0,110.9,13.24,23.88,20.8
"2010-06-19 01:18:30",213737,5.39,57.68,2.836,0.213,20.63,109.2811,23.05,24.08,26.07,0,110.9,13.24,23.88,19.7
"2010-06-19 01:19:00",213738,5.253,50.87,2.749,0.182,20.57,109.2811,23.05,24.05,27.13,0,110.9,13.24,23.88,12.9
"2010-06-19 01:19:30",213739,5.649,50.69,1.852,0.267,20.59,109.28,23.05,24.04,26.97,0,110.9,13.24,23.88,12.7
"2010-06-19 01:20:00",213740,5.395,48.67,1.317,0.204,20.59,109.2738,23.03,24.02,26.81,0,110.9,13.24,23.86,10.7
"2010-06-19 01:20:30",213741,5.739,55.07,2.566,0.138,20.6,109.2713,23.02,24.03,26.75,0,110.9,13.24,23.85,17.1
"2010-06-19 01:21:00",213742,5.751,49.69,1.234,0.127,20.6,109.2704,23.02,24.01,26.33,0,110.9,13.24,23.85,11.7
"2010-06-19 01:21:30",213743,5.98,50.89,3.099,0.364,20.6,109.2713,23.02,24.01,26.21,0,110.9,13.24,23.85,12.9
"2010-06-19 01:22:00",213744,5.163,57.87,3.056,0.157,20.59,109.2693,23.02,24.02,26.29,0,110.9,13.25,23.85,19.9
"2010-06-19 01:22:30",213745,5.778,50.65,1.525,0.165,20.57,109.2654,23.01,24.01,26.26,0,110.9,13.25,23.84,12.7
"2010-06-19 01:23:00",213746,6.048,48.8,1.595,0.271,20.61,109.2654,23.01,24.02,26.4,0,110.9,13.25,23.84,10.8
"2010-06-19 01:23:30",213747,5.899,48.13,1.51,0.222,20.57,109.2662,23.01,24.01,26.39,0,110.9,13.25,23.84,10.1
"2010-06-19 01:24:00",213748,6.209,47.05,2.207,0.186,20.6,109.2659,23.01,24.01,26.45,0,110.9,13.25,23.84,9.0
"2010-06-19 01:24:30",213749,6.708,45.52,1.939,0.189,20.54,109.2645,23.01,24.01,27.05,0,110.9,13.25,23.84,7.5
"2010-06-19 01:25:00",213750,6.584,50.35,1.309,0.114,20.64,109.2643,23,23.99,26.44,0,110.9,13.25,23.84,12.3
"2010-06-19 01:25:30",213751,6.179,50.55,0.501,0.123,20.65,109.2649,23.01,23.99,26.42,0,110.9,13.25,23.84,12.5
"2010-06-19 01:26:00",213752,6.296,52.13,1.59,0.133,20.64,109.2652,23.01,23.99,26.52,0,110.9,13.25,23.84,14.1
"2010-06-19 01:26:30",213753,6.531,51.05,2.04,0.14,20.61,109.267,23.01,24,26.76,0,110.9,13.25,23.84,13.0
"2010-06-19 01:27:00",213754,6.715,54.01,3.708,0.177,20.67,109.2693,23.02,23.98,26.58,0,110.9,13.25,23.85,16.0
"2010-06-19 01:27:30",213755,6.47,55.77,1.398,0.147,20.61,109.2733,23.03,23.98,26.61,0,110.9,13.25,23.86,17.8
"2010-06-19 01:28:00",213756,6.299,52.38,1.935,0.153,20.6,109.274,23.03,23.99,26.67,0,110.9,13.25,23.86,14.4
"2010-06-19 01:28:30",213757,6.404,52.39,2.692,0.212,20.62,109.2693,23.02,23.98,26.56,0,110.9,13.25,23.85,14.4
"2010-06-19 01:29:00",213758,6.383,50.07,3.068,0.186,20.62,109.267,23.01,23.98,26.47,0,110.9,13.25,23.84,12.1
"2010-06-19 01:29:30",213759,6.232,49.97,1.364,0.132,20.62,109.2708,23.02,23.98,26.56,0,110.9,13.25,23.85,12.0
"2010-06-19 01:30:00",213760,6.242,48.89,1.124,0.086,20.62,109.2675,23.01,23.95,26.56,0,110.9,13.25,23.85,10.9
"2010-06-19 01:30:30",213761,6.43,47.39,1.47,0.128,20.65,109.2597,22.99,23.95,26.48,0,110.9,13.25,23.83,9.4
"2010-06-19 01:31:00",213762,6.271,47.4,0.661,0.112,20.66,109.2589,22.99,23.96,26.5,0,110.9,13.25,23.82,9.4
"2010-06-19 01:31:30",213763,6.18,50.59,1.732,0.134,20.66,109.2532,22.98,23.96,26.52,0,110.9,13.25,23.81,12.6
"2010-06-19 01:32:00",213764,5.789,56.73,3.76,0.208,20.61,109.2423,22.95,23.96,26.66,0,110.9,13.25,23.78,18.7
"2010-06-19 01:32:30",213765,6.085,53.18,3.552,0.305,20.61,109.2419,22.95,23.95,26.7,0,110.9,13.25,23.78,15.2
"2010-06-19 01:33:00",213766,6.043,48.12,1.291,0.184,20.62,109.2428,22.95,23.93,26.65,0,110.9,13.25,23.78,10.1
"2010-06-19 01:33:30",213767,6.143,54.92,2.176,0.139,20.61,109.2486,22.96,23.93,26.58,0,110.9,13.25,23.80,16.9
"2010-06-19 01:34:00",213768,6.288,50.94,2.289,0.395,20.62,109.2493,22.97,23.93,26.9,0,110.9,13.25,23.80,12.9
"2010-06-19 01:34:30",213769,6.206,55.23,2.4,0.362,20.63,109.2495,22.97,23.92,26.85,0,110.9,13.25,23.80,17.2
"2010-06-19 01:35:00",213770,6.525,56.68,1.476,0.418,20.73,109.2468,22.96,23.91,26.72,0,110.9,13.24,23.79,18.7
"2010-06-19 01:35:30",213771,6.012,54.9,3.039,0.419,20.67,109.2511,22.97,23.9,26.74,0,110.9,13.25,23.80,16.9
"2010-06-19 01:36:00",213772,6.297,52.53,3.492,0.199,20.68,109.2522,22.97,23.91,26.83,0,110.9,13.24,23.81,14.5
"2010-06-19 01:36:30",213773,6.162,48.38,1.784,0.205,20.68,109.2431,22.95,23.9,27.04,0,110.9,13.25,23.78,10.4
"2010-06-19 01:37:00",213774,5.846,49.4,2.448,0.196,20.67,109.2333,22.93,23.88,27.01,0,110.9,13.25,23.76,11.4
"2010-06-19 01:37:30",213775,6.116,44.93,1.085,0.156,20.66,109.2313,22.92,23.88,27.19,0,110.9,13.25,23.75,6.9
"2010-06-19 01:38:00",213776,6.239,50.82,4.279,0.128,20.66,109.2304,22.92,23.87,27.15,0,110.9,13.25,23.75,12.8
"2010-06-19 01:38:30",213777,6.225,57.62,3.077,0.141,20.65,109.2272,22.91,23.88,27.3,0,110.9,13.25,23.74,19.6
"2010-06-19 01:39:00",213778,6.121,51.64,2.677,0.223,20.62,109.2253,22.9,23.86,27.65,0,110.9,13.25,23.74,13.6
"2010-06-19 01:39:30",213779,6.198,56.35,1.43,0.255,20.66,109.225,22.9,23.86,27.51,0,110.9,13.25,23.74,18.3
"2010-06-19 01:40:00",213780,5.986,54.72,1.876,0.201,20.64,109.2266,22.91,23.84,27.4,0,110.9,13.25,23.74,16.7
"2010-06-19 01:40:30",213781,6.309,57.91,2.2,0.179,20.65,109.2218,22.9,23.85,27.39,0,110.8,13.25,23.73,19.9
"2010-06-19 01:41:00",213782,6.116,58.71,2.594,0.25,20.66,109.2181,22.89,23.84,27.37,0,110.9,13.26,23.72,20.7
"2010-06-19 01:41:30",213783,6.138,57.7,3.107,0.243,20.65,109.2131,22.87,23.84,27.33,0,110.9,13.26,23.71,19.7
"2010-06-19 01:42:00",213784,6.419,54.47,1.06,0.111,20.71,109.2089,22.86,23.82,27.36,0,110.9,13.26,23.69,16.5
"2010-06-19 01:42:30",213785,5.971,54.34,3.069,0.162,20.68,109.2051,22.85,23.81,27.7,0,110.8,13.26,23.68,16.3
"2010-06-19 01:43:00",213786,6.12,57.43,1.951,0.22,20.69,109.1994,22.84,23.79,27.35,0,110.8,13.26,23.67,19.4
"2010-06-19 01:43:30",213787,5.791,57.07,3.097,0.252,20.68,109.1968,22.83,23.78,27.57,0,110.8,13.26,23.66,19.1
"2010-06-19 01:44:00",213788,6.027,55.2,3.21,0.301,20.66,109.1962,22.83,23.79,27.88,0,110.8,13.26,23.66,17.2
"2010-06-19 01:44:30",213789,5.833,57.87,1.977,0.174,20.66,109.1974,22.83,23.78,27.53,0,110.8,13.26,23.66,19.9
"2010-06-19 01:45:00",213790,5.822,60.77,4.718,0.249,20.63,109.1987,22.84,23.77,28.05,0,110.8,13.26,23.67,22.8
"2010-06-19 01:45:30",213791,5.022,50.74,1.769,0.178,20.61,109.1897,22.81,23.76,28.36,0,110.8,13.26,23.64,12.7
"2010-06-19 01:46:00",213792,4.792,55.85,2.634,0.151,20.64,109.1816,22.79,23.73,28.4,0,110.8,13.26,23.62,17.8
"2010-06-19 01:46:30",213793,5.218,52.87,1.683,0.303,20.63,109.1801,22.79,23.73,28.3,0,110.8,13.26,23.62,14.9
"2010-06-19 01:47:00",213794,6.072,51.46,4.546,0.605,20.62,109.1698,22.76,23.72,28.3,0,110.8,13.26,23.59,13.5
"2010-06-19 01:47:30",213795,5.859,54.82,2.388,0.286,20.61,109.1664,22.75,23.71,28.49,0,110.8,13.26,23.58,16.8
"2010-06-19 01:48:00",213796,6.179,63.43,2.096,0.175,20.68,109.1661,22.75,23.7,28.22,0,110.8,13.26,23.58,25.4
"2010-06-19 01:48:30",213797,6.816,61.19,2.491,0.172,20.61,109.1658,22.75,23.7,28.28,0,110.8,13.26,23.58,23.2
"2010-06-19 01:49:00",213798,6.75,62.01,2.796,0.612,20.61,109.1638,22.75,23.69,28.23,0,110.8,13.26,23.58,24.0